Вернуться в каталог

STARLINK-33554

АктивенСвязьVLEO
NORAD 62103·PAYLOAD·🇺🇸 United States

Запущен Nov 25, 2024 с Cape Canaveral Space Force Station

Loading…

Ближайшие Пролёты (ближайшие 24 часа)

TLE

СвежийSource: CelesTrak SupGP

Эпоха: Sep 15, 2026, 02:10 UTC

1 62103C 24220R   26258.09076389 -.00035282  00000+0 -12780-2 0  2586
2 62103  42.9995 215.6058 0001062 267.8852   1.4256 15.27594142    15

Отслеживайте STARLINK-33554 в реальном времени с AllMySat

Download on the App Store